星链-1728 (STARLINK-1728 )

导读 | 豆包AI

STARLINK-1728是美国太空探索技术公司(SpaceX)星链(Starlink)星座的一员,于2020年10月6日发射。星链项目旨在构建全球卫星互联网,为全球提供高速低延迟网络服务。该卫星加入星座后,提升了星链的覆盖范围和服务能力,推进了SpaceX近地轨道卫星互联网的组网进程。

基本信息
目录编号:
46582
目录名称:
STARLINK-1728
国际标识:
2020-070BC
轨道中心:
EARTH
卫星名称:
星链-1728
卫星全名:
星链-1728 (STARLINK-1728 )
卫星状态:
在轨 (已飞行1985 天)
发射日期:
2020-10-06 UTC
国别 :
美国 (US)
星等 :
--
轨道信息
数据来源 国际轨道数据
星历时间: 2026-03-13T20:28:46+0800
20小时前
查看轨道信息
半长轴: 6784.106km
偏心率: 0.0001942
轨道倾角: 53.042°
近地点辐角 185.619°
升交点赤经 106.929°
平近点角 174.480°
近地点: 404.651km
远地点: 407.287km
周期: 92.683分钟
每日圈数: 15.536882
详细信息
固有亮度:
5
最大亮度:
2.5
卫星平台:
Starlink V1.0
覆盖范围:
全球
运营商:
太空探索技术公司
运营商所在国:
美国
制造商(研发单位):
太空探索技术公司
制造商所在国:
美国
使用方式:
暂无
卫星简介
星链(Starlink)计划是由太空探索技术公司(SpaceX)提出的一个巨型低轨卫星互联网星座项目,计划在2019年至2024年间在太空搭建由约1.2万颗卫星组成的“星链”网络,其中1584颗将部署在地球上空550千米处的近地轨道,并从2020年开始工作。该卫星仍在工作。
2D轨道图
3D轨道图
轨道高度分析图
轨道倾角分析图
轨道综合分析图
查看轨道综合分析图